TimePST,TemperatureF,Dew PointF,Humidity,Sea Level PressureIn,VisibilityMPH,Wind Direction,Wind SpeedMPH,Gust SpeedMPH,PrecipitationIn,Events,Conditions,WindDirDegrees,DateUTC
12:53 AM,45.0,39.9,82,30.01,10.0,SE,11.5,-,N/A,,Clear,130,2012-11-18 08:53:00
1:53 AM,46.0,39.0,76,30.01,10.0,SE,12.7,-,N/A,,Clear,130,2012-11-18 09:53:00
2:53 AM,46.9,39.0,74,30.01,10.0,SE,12.7,-,N/A,,Mostly Cloudy,130,2012-11-18 10:53:00
3:53 AM,46.9,39.0,74,30.01,10.0,SE,10.4,-,N/A,,Scattered Clouds,130,2012-11-18 11:53:00
4:53 AM,46.9,39.9,77,30.01,10.0,SE,12.7,-,N/A,,Overcast,130,2012-11-18 12:53:00
5:53 AM,48.0,39.0,71,30.00,10.0,SE,13.8,-,N/A,,Scattered Clouds,140,2012-11-18 13:53:00
6:53 AM,48.9,39.9,71,30.00,10.0,SE,12.7,-,N/A,,Overcast,130,2012-11-18 14:53:00
7:53 AM,50.0,39.9,68,30.01,10.0,SE,10.4,-,N/A,,Overcast,140,2012-11-18 15:53:00
8:53 AM,50.0,41.0,71,30.02,10.0,SE,13.8,23.0,N/A,,Overcast,140,2012-11-18 16:53:00
9:53 AM,52.0,42.1,69,30.02,10.0,SE,13.8,-,N/A,,Overcast,140,2012-11-18 17:53:00
10:53 AM,53.1,42.1,66,30.03,10.0,SE,12.7,20.7,N/A,,Overcast,140,2012-11-18 18:53:00
11:53 AM,53.1,43.0,69,30.02,10.0,SE,9.2,-,N/A,,Overcast,140,2012-11-18 19:53:00
12:53 PM,54.0,43.0,66,30.01,10.0,SSE,9.2,-,N/A,,Overcast,150,2012-11-18 20:53:00
1:53 PM,53.1,45.0,74,30.01,10.0,SSE,11.5,-,0.00,Rain,Light Rain,160,2012-11-18 21:53:00
2:53 PM,51.1,46.9,86,30.01,9.0,SSE,5.8,-,0.02,Rain,Light Rain,150,2012-11-18 22:53:00
3:53 PM,50.0,46.0,86,29.99,10.0,SE,10.4,-,0.03,Rain,Light Rain,140,2012-11-18 23:53:00
4:53 PM,51.1,46.0,83,30.00,10.0,SSE,10.4,-,0.00,,Overcast,150,2012-11-19 00:53:00
5:53 PM,52.0,45.0,77,29.99,10.0,SE,12.7,20.7,0.01,Rain,Light Rain,140,2012-11-19 01:53:00
6:53 PM,52.0,44.1,74,30.00,10.0,SSE,12.7,-,0.00,Rain,Light Rain,150,2012-11-19 02:53:00
7:53 PM,52.0,44.1,74,30.01,10.0,SSE,11.5,-,0.00,,Overcast,150,2012-11-19 03:53:00
8:53 PM,53.1,44.1,71,30.01,10.0,SSE,12.7,19.6,N/A,,Overcast,150,2012-11-19 04:53:00
9:53 PM,54.0,44.1,69,30.01,10.0,SSE,13.8,19.6,N/A,,Overcast,160,2012-11-19 05:53:00
10:53 PM,54.0,45.0,72,30.02,10.0,SSE,8.1,-,N/A,,Overcast,160,2012-11-19 06:53:00
11:53 PM,55.0,45.0,69,30.01,10.0,SE,11.5,-,N/A,,Overcast,140,2012-11-19 07:53:00